User: anonymous   Login
Location: Unspecified
(0.0000°N, 0.0000°E)
Time: 11:04:04
(UTC+00:00)
Language:

MUOS 3 - Orbit

View from above orbital plane
View from above orbital plane
View from above satellite
View from above satellite

Ground track
Ground track

The orbit data is extracted from the following two-line orbital elements,

1 40374U 15002A   17301.86140674 0.00000000  00000-0  00000-0 0    07
2 40374   3.9345 332.0389 0054409 180.8086 179.1959  1.00270000    06
Epoch (UTC): 28 October 2017 20:40:25
Eccentricity: 0.0054409
inclination: 3.9345°
perigee height: 35557 km
apogee height: 36016 km
right ascension of ascending node: 332.0389°
argument of perigee: 180.8086°
revolutions per day: 1.00270000
mean anomaly at epoch: 179.1959°
orbit number at epoch: 0

The dashed part of the orbit path shows where the satellite is in the earth's shadow,  

DLR